WORLDVIEW-1 (WV-1)

Last updated on Tue Jul 08 2025 00:02:28 GMT+0000 (Coordinated Universal Time)

1 32060U 07041A 25187.88223024 .00005557 00000+0 23143-3 0 9992 2 32060 97.3797 307.6577 0001363 34.5756 325.5570 15.24134255990325
UTC large
Height (km)
Speed (km/s)
/
Latitude / Longitude
Inclination (degrees)
Orbital Period (minutes)
Azimuth
Elevation
Range (km)
Doppler Factor

Next 0 passes for location: London (51.5072 / 0.1276)

Sorry there are no passes over London.